Weather History for Price, UT

Change the Weather History Date:

Monday, June 24, 2013

  Actual Average Record
Temperature  
Mean Temperature 70 °F -  
Max Temperature 84 °F 83 °F 98 °F (2012)
Min Temperature 57 °F 52 °F 37 °F (1975)
Cooling Degree Days 6    
Growing Degree Days 20 (Base 50)    
Moisture  
Dew Point 24 °F    
Average Humidity 19    
Maximum Humidity 34    
Minimum Humidity 9    
Precipitation  
Precipitation 0.00 in - - ()
Sea Level Pressure  
Sea Level Pressure 29.64 in    
Wind  
Wind Speed 9 mph (SSW)    
Max Wind Speed 24 mph    
Max Gust Speed 41 mph    
Visibility 10 miles    
Events      
Averages and records for this station are not official NWS values.
T = Trace of Precipitation, MM = Missing Value Source: NWS Daily Summary

Daily Weather History Graph

Daily Weather History Graph

Search for Another Location

Airport:

Trip Planner

Search our weather history database for the weather conditions in past years. The results will help you decide how hot, cold, wet, or windy it might be!

Date:

Astronomy

Jun. 24, 2013 Rise Set
Actual Time 5:56 AM MDT 8:54 PM MDT
Civil Twilight 5:23 AM MDT 9:27 PM MDT
Nautical Twilight 4:42 AM MDT 10:08 PM MDT
Astronomical Twilight 3:54 AM MDT 10:56 PM MDT
Moon 10:00 PM MDT (6/24) 7:27 AM MDT (6/24)
Length of Visible Light 16h 03m
Length of Day
14h 58m
Full, 97% of the Moon is Illuminated
Jun 24
Full
Jun 29
Last Quarter
Jul 8
New
Jul 15
First Quarter
Jul 22
Full

Hourly Weather History & Observations

Time (MDT) Temp. Dew Point Humidity Pressure Visibility Wind Dir Wind Speed Gust Speed Precip Events Conditions
12:53 AM 59.0 °F 15.1 °F 18% 29.60 in 10.0 mi North 4.6 mph - N/A   Clear
1:53 AM 61.0 °F 17.1 °F 18% 29.57 in 10.0 mi NNE 9.2 mph - N/A   Clear
2:53 AM 61.0 °F 19.0 °F 20% 29.57 in 10.0 mi North 8.1 mph - N/A   Clear
3:53 AM 61.0 °F 19.9 °F 21% 29.56 in 10.0 mi North 10.4 mph - N/A   Clear
4:53 AM 62.1 °F 21.0 °F 21% 29.56 in 10.0 mi East 3.5 mph - N/A   Clear
5:53 AM 57.0 °F 21.9 °F 26% 29.63 in 10.0 mi ESE 5.8 mph - N/A   Clear
6:53 AM 61.0 °F 24.1 °F 24% 29.62 in 10.0 mi NE 3.5 mph - N/A   Clear
7:53 AM 70.0 °F 21.0 °F 16% 29.60 in 10.0 mi ESE 5.8 mph - N/A   Clear
8:53 AM 71.1 °F 21.0 °F 15% 29.62 in 10.0 mi SE 9.2 mph - N/A   Clear
9:53 AM 73.9 °F 21.9 °F 14% 29.64 in 10.0 mi Variable 5.8 mph - N/A   Unknown
10:53 AM 80.1 °F 19.0 °F 10% 29.63 in 10.0 mi South 11.5 mph 28.8 mph N/A   Clear
11:53 AM 81.0 °F 17.1 °F 9% 29.62 in 10.0 mi South 15.0 mph 23.0 mph N/A   Clear
12:53 PM 82.0 °F 17.1 °F 9% 29.63 in 10.0 mi SSE 13.8 mph 19.6 mph N/A   Clear
1:53 PM 82.9 °F 18.0 °F 9% 29.61 in 10.0 mi South 12.7 mph 24.2 mph N/A   Clear
2:53 PM 84.0 °F 19.0 °F 9% 29.59 in 10.0 mi SSW 16.1 mph 23.0 mph N/A   Clear
3:53 PM 82.9 °F 19.9 °F 10% 29.60 in 10.0 mi South 17.3 mph 25.3 mph N/A   Partly Cloudy
4:53 PM 80.1 °F 24.1 °F 13% 29.61 in 10.0 mi South 24.2 mph 41.4 mph N/A   Mostly Cloudy
5:53 PM 75.0 °F 30.9 °F 20% 29.70 in 10.0 mi SW 23.0 mph 39.1 mph N/A   Overcast
6:53 PM 73.0 °F 32.0 °F 22% 29.71 in 10.0 mi West 16.1 mph 21.9 mph N/A   Overcast
7:53 PM 71.1 °F 34.0 °F 26% 29.70 in 10.0 mi West 9.2 mph - N/A   Overcast
8:53 PM 69.1 °F 34.0 °F 27% 29.72 in 10.0 mi WNW 6.9 mph - N/A   Overcast
9:53 PM 68.0 °F 36.0 °F 31% 29.72 in 10.0 mi NW 10.4 mph - N/A   Overcast
10:53 PM 66.9 °F 36.0 °F 32% 29.72 in 10.0 mi WNW 16.1 mph 21.9 mph N/A   Overcast
11:53 PM 66.0 °F 37.0 °F 34% 29.73 in 10.0 mi WNW 13.8 mph 21.9 mph N/A   Overcast